GREYPAWS Weather Reports


time (UTC)temp
C
wind
direction
speed
KPH
gust
KPH
rain 1hr
cm
rain 24hr
cm
rain mn
cm
humidity
%
barometer
mb
20260506024528 22 304 3.2 8.0 0.00 0.00 0.00 31 1006.4
20260506023100 22 277 3.2 9.7 0.00 0.00 0.00 30 1006.1
20260506021544 23 337 4.8 16.1 0.00 0.00 0.00 29 1005.8
20260506020100 24 15 3.2 14.5 0.00 0.00 0.00 28 1005.7
20260506020010 24 355 3.2 14.5 0.00 0.00 0.00 28 1005.7
20260506014550 24 348 4.8 19.3 0.00 0.00 0.00 29 1005.5
20260506013049 24 15 9.7 19.3 0.00 0.00 0.00 28 1005.5
20260506011514 25 339 9.7 19.3 0.00 0.00 0.00 28 1005.3
20260506010058 25 310 8.0 17.7 0.00 0.00 0.00 28 1005.2
20260506004540 26 85 6.4 24.1 0.00 0.00 0.00 26 1005.1
20260506003054 26 323 8.0 17.7 0.00 0.00 0.00 25 1005.1
20260506001532 26 293 6.4 25.7 0.00 0.00 0.00 25 1005.1
20260506000021 26 321 9.7 20.9 0.00 0.00 0.00 26 1005.2
20260505234550 26 304 6.4 22.5 0.00 0.00 0.00 25 1005.2
20260505233042 26 304 8.0 24.1 0.00 0.00 0.00 25 1005.4
20260505231511 26 344 9.7 22.5 0.00 0.00 0.00 27 1005.4
20260505230002 26 281 11.3 20.9 0.00 0.00 0.00 28 1005.5
20260505224522 26 297 8.0 19.3 0.00 0.00 0.00 30 1005.5
20260505223020 25 288 9.7 24.1 0.00 0.00 0.00 30 1005.8
20260505221549 26 296 6.4 24.1 0.00 0.00 0.00 29 1005.9
20260505220040 26 310 1.6 20.9 0.00 0.00 0.00 28 1006.0
20260505214605 25 300 9.7 22.5 0.00 0.00 0.00 28 1006.4
20260505214502 25 267 8.0 22.5 0.00 0.00 0.00 28 1006.4
20260505213057 25 30 8.0 20.9 0.00 0.00 0.00 30 1006.6
20260505211515 25 322 3.2 17.7 0.00 0.00 0.00 31 1006.8
20260505210100 25 293 4.8 17.7 0.00 0.00 0.00 32 1006.9
20260505210002 25 286 6.4 17.7 0.00 0.00 0.00 32 1006.9
20260505204524 25 281 8.0 20.9 0.00 0.00 0.00 34 1007.0
20260505203021 23 302 6.4 19.3 0.00 0.00 0.00 33 1007.2
20260505201605 23 13 4.8 11.3 0.00 0.00 0.00 33 1007.3
20260505201502 23 310 3.2 11.3 0.00 0.00 0.00 33 1007.3
20260505200044 23 5 4.8 14.5 0.00 0.00 0.00 34 1007.5
20260505194528 23 300 11.3 22.5 0.00 0.00 0.00 34 1007.6
20260505193028 22 273 4.8 11.3 0.00 0.00 0.00 34 1007.7
20260505191603 22 283 8.0 14.5 0.00 0.00 0.00 33 1007.8
20260505190043 22 258 4.8 14.5 0.00 0.00 0.00 33 1007.9
20260505184531 22 213 4.8 19.3 0.00 0.00 0.00 33 1008.1
20260505183013 22 94 3.2 12.9 0.00 0.00 0.00 36 1008.2
20260505181540 21 99 0.0 6.4 0.00 0.00 0.00 36 1008.3
20260505180037 21 246 1.6 9.7 0.00 0.00 0.00 35 1008.5
20260505174601 22 248 4.8 9.7 0.00 0.00 0.00 35 1008.5
20260505173046 22 221 0.0 3.2 0.00 0.00 0.00 36 1008.5
20260505171510 21 234 0.0 8.0 0.00 0.00 0.00 36 1008.3
20260505170055 21 120 0.0 8.0 0.00 0.00 0.00 36 1008.2
20260505164528 21 244 1.6 4.8 0.00 0.00 0.00 35 1008.1
20260505163014 21 83 1.6 11.3 0.00 0.00 0.00 35 1008.0
20260505161554 21 60 0.0 11.3 0.00 0.00 0.00 36 1008.0
20260505153046 20 50 1.6 12.9 0.00 0.00 0.00 41 1007.6
20260505151527 19 229 0.0 8.0 0.00 0.00 0.00 48 1007.6
20260505124542 11 288 0.0 3.2 0.00 0.00 0.00 64 1005.8
20260505123036 11 273 0.0 3.2 0.00 0.00 0.00 63 1005.6
20260505121530 12 273 0.0 3.2 0.00 0.00 0.00 61 1005.2
20260505120036 12 256 0.0 3.2 0.00 0.00 0.00 60 1004.9
20260505114518 12 186 0.0 0.0 0.00 0.00 0.00 59 1004.9
20260505113058 12 186 0.0 3.2 0.00 0.00 0.00 58 1004.8
20260505113006 12 186 0.0 3.2 0.00 0.00 0.00 58 1004.7
20260505111550 13 297 0.0 0.0 0.00 0.00 0.00 58 1004.5
20260505101549 12 294 1.6 8.0 0.00 0.00 0.00 55 1003.6
20260505100054 13 273 1.6 8.0 0.00 0.00 0.00 54 1003.6
20260505094511 14 284 3.2 16.1 0.00 0.00 0.00 52 1003.5
20260505093010 14 298 6.4 16.1 0.00 0.00 0.00 51 1003.3
20260505091508 14 304 11.3 17.7 0.00 0.00 0.00 50 1003.2
20260505090010 14 291 8.0 12.9 0.00 0.00 0.00 48 1003.2
20260505084605 15 281 3.2 12.9 0.00 0.00 0.00 46 1003.1
20260505083046 16 276 9.7 17.7 0.00 0.00 0.00 46 1003.0
20260505081600 16 290 9.7 16.1 0.00 0.00 0.00 45 1002.9
20260505080046 16 300 8.0 12.9 0.00 0.00 0.00 44 1002.9
20260505074530 16 296 4.8 16.1 0.00 0.00 0.00 42 1002.9
20260505073037 17 312 4.8 17.7 0.00 0.00 0.00 41 1002.9
20260505071510 17 290 4.8 17.7 0.00 0.00 0.00 42 1002.7
20260505070016 17 280 6.4 22.5 0.00 0.00 0.00 42 1002.6
20260505064550 17 304 3.2 14.5 0.00 0.00 0.00 42 1002.4
20260505063047 17 298 8.0 19.3 0.00 0.00 0.00 41 1002.3
20260505061540 18 289 3.2 14.5 0.00 0.00 0.00 41 1002.2
20260505060030 18 287 3.2 14.5 0.00 0.00 0.00 40 1002.2
20260505054600 18 309 4.8 17.7 0.00 0.00 0.00 40 1002.2
20260505054502 18 276 4.8 17.7 0.00 0.00 0.00 40 1002.2
20260505053004 18 355 1.6 11.3 0.00 0.00 0.00 42 1002.1
20260505051521 18 19 3.2 9.7 0.00 0.00 0.00 43 1002.1
20260505041538 18 315 1.6 9.7 0.00 0.00 0.00 43 1001.8
20260505040035 20 308 3.2 8.0 0.00 0.00 0.00 42 1001.6
20260505034553 20 291 1.6 9.7 0.00 0.00 0.00 41 1001.4
20260505033044 20 338 0.0 6.4 0.00 0.00 0.00 41 1001.3
20260505031544 21 304 3.2 8.0 0.00 0.00 0.00 37 1001.1